When you browse on this site, cookies collect data to enhance your experience and personalize the content and advertising you see.
Visit our Privacy Policy to learn more. By continuing to use the site, you agree to this use of cookies and data.
  • In Austria
  • List of Countries
  • For 7 days
  • Water Temperature
  • Satellite Maps
  • Weather Map
  • News
  • Weather Widgets
  • user-avatar
    Login

    Hourly Weather Borzhomi

    Today, 16 January, Wednesday

    Time Temperature Precipitation Wind Pressure Humidity
    00:00 0°C° 0 mm 3 mps 659 mmHg 70%
    01:00 0°C° 0 mm 3 mps 659 mmHg 71%
    02:00 0°C° 0 mm 3 mps 659 mmHg 72%
    03:00 0°C° 0 mm 3 mps 658 mmHg 73%
    04:00 0°C° 0 mm 3 mps 658 mmHg 74%
    05:00 0°C° 0 mm 3 mps 658 mmHg 74%
    06:00 0°C° 0 mm 3 mps 658 mmHg 74%
    07:00 0°C° 0 mm 3 mps 658 mmHg 73%
    08:00 0°C° 0 mm 3 mps 658 mmHg 72%
    09:00 +1°C° 0 mm 3 mps 658 mmHg 70%
    10:00 +2°C° 0 mm 3 mps 658 mmHg 69%
    11:00 +3°C° 0 mm 3 mps 658 mmHg 68%
    12:00 +5°C° 0 mm 2 mps 659 mmHg 67%
    13:00 +5°C° 0 mm 2 mps 658 mmHg 66%
    14:00 +5°C° 0 mm 2 mps 658 mmHg 66%
    15:00 +7°C° 0 mm 1 mps 658 mmHg 66%
    16:00 +5°C° 0 mm 1 mps 658 mmHg 70%
    17:00 +3°C° 0 mm 1 mps 658 mmHg 74%
    18:00 +2°C° 0 mm 1 mps 658 mmHg 78%
    19:00 +1°C° 0.1 mm 1 mps 658 mmHg 79%
    20:00 +1°C° 0.1 mm 1 mps 658 mmHg 80%
    21:00 0°C° 0.1 mm 1 mps 658 mmHg 81%
    22:00 0°C° 0.1 mm 1 mps 658 mmHg 81%
    23:00 0°C° 0.1 mm 1 mps 657 mmHg 82%

    Tomorrow, 17 January, Thursday

    Time Temperature Precipitation Wind Pressure Humidity
    00:00 0°C° 0.1 mm 1 mps 657 mmHg 82%
    01:00 0°C° 0.4 mm 1 mps 657 mmHg 86%
    02:00 0°C° 0.4 mm 1 mps 657 mmHg 90%
    03:00 0°C° 0.4 mm 1 mps 657 mmHg 94%
    04:00 0°C° 0.9 mm 1 mps 658 mmHg 95%
    05:00 -3°C° 0.9 mm 2 mps 658 mmHg 95%
    06:00 -4°C° 0.9 mm 3 mps 658 mmHg 96%
    07:00 -3°C° 0.3 mm 2 mps 658 mmHg 96%
    08:00 -4°C° 0.3 mm 2 mps 659 mmHg 95%
    09:00 -4°C° 0.3 mm 2 mps 659 mmHg 94%
    10:00 -4°C° 0.2 mm 2 mps 659 mmHg 92%
    11:00 -5°C° 0.2 mm 3 mps 660 mmHg 89%
    12:00 -5°C° 0.2 mm 3 mps 660 mmHg 87%
    13:00 -5°C° 0.1 mm 3 mps 660 mmHg 86%
    14:00 -5°C° 0.1 mm 3 mps 660 mmHg 86%
    15:00 -5°C° 0.1 mm 3 mps 661 mmHg 85%
    16:00 -4°C° 0.1 mm 2 mps 661 mmHg 88%
    17:00 -5°C° 0.1 mm 2 mps 662 mmHg 90%
    18:00 -5°C° 0.1 mm 2 mps 663 mmHg 93%
    19:00 -5°C° 0.1 mm 2 mps 663 mmHg 93%
    20:00 -6°C° 0.1 mm 2 mps 664 mmHg 94%
    21:00 -4°C° 0.1 mm 1 mps 664 mmHg 95%
    22:00 -4°C° 0 mm 1 mps 665 mmHg 95%
    23:00 -4°C° 0 mm 1 mps 665 mmHg 95%

    Day after tomorrow, 18 January, Friday

    Time Temperature Precipitation Wind Pressure Humidity
    00:00 -4°C° 0 mm 1 mps 665 mmHg 95%
    01:00 -4°C° 0 mm 1 mps 666 mmHg 94%
    02:00 -4°C° 0 mm 1 mps 666 mmHg 94%
    03:00 -4°C° 0 mm 1 mps 666 mmHg 94%
    04:00 -4°C° 0 mm 1 mps 666 mmHg 94%
    05:00 -4°C° 0 mm 1 mps 667 mmHg 93%
    06:00 -4°C° 0 mm 1 mps 667 mmHg 93%
    07:00 -4°C° 0 mm 1 mps 667 mmHg 90%
    08:00 -3°C° 0 mm 1 mps 667 mmHg 88%
    09:00 -3°C° 0 mm 1 mps 668 mmHg 85%
    10:00 -2°C° 0 mm 1 mps 668 mmHg 82%
    11:00 -1°C° 0 mm 1 mps 668 mmHg 79%
    12:00 +1°C° 0 mm 1 mps 668 mmHg 76%
    13:00 +1°C° 0 mm 1 mps 667 mmHg 76%
    14:00 +1°C° 0 mm 1 mps 667 mmHg 76%
    15:00 +1°C° 0 mm 1 mps 667 mmHg 76%
    16:00 -1°C° 0 mm 1 mps 667 mmHg 80%
    17:00 -2°C° 0 mm 1 mps 667 mmHg 84%
    18:00 -4°C° 0 mm 1 mps 667 mmHg 87%
    19:00 -4°C° 0 mm 1 mps 667 mmHg 84%
    20:00 -4°C° 0 mm 1 mps 667 mmHg 81%
    21:00 -6°C° 0 mm 2 mps 667 mmHg 78%
    22:00 -7°C° 0 mm 2 mps 667 mmHg 76%
    23:00 -7°C° 0 mm 2 mps 667 mmHg 74%

    19 January, Saturday

    Time Temperature Precipitation Wind Pressure Humidity
    00:00 -7°C° 0 mm 2 mps 667 mmHg 71%
    01:00 -7°C° 0 mm 2 mps 667 mmHg 69%
    02:00 -7°C° 0 mm 2 mps 667 mmHg 68%
    03:00 -7°C° 0 mm 2 mps 667 mmHg 66%
    04:00 -7°C° 0 mm 2 mps 667 mmHg 65%
    05:00 -7°C° 0 mm 2 mps 667 mmHg 63%
    06:00 -7°C° 0 mm 2 mps 667 mmHg 62%
    07:00 -7°C° 0 mm 2 mps 667 mmHg 60%
    08:00 -6°C° 0 mm 2 mps 667 mmHg 59%
    09:00 -5°C° 0 mm 2 mps 667 mmHg 57%
    10:00 -3°C° 0 mm 2 mps 667 mmHg 55%
    11:00 +1°C° 0 mm 1 mps 667 mmHg 53%
    12:00 +3°C° 0 mm 1 mps 667 mmHg 50%
    13:00 +3°C° 0 mm 1 mps 667 mmHg 52%
    14:00 +3°C° 0 mm 1 mps 667 mmHg 54%
    15:00 +3°C° 0 mm 1 mps 667 mmHg 56%
    16:00 +1°C° 0 mm 1 mps 667 mmHg 62%
    17:00 -1°C° 0 mm 1 mps 667 mmHg 67%
    18:00 -3°C° 0 mm 1 mps 666 mmHg 73%
    19:00 -3°C° 0 mm 1 mps 667 mmHg 72%
    20:00 -3°C° 0 mm 1 mps 667 mmHg 72%
    21:00 -6°C° 0 mm 2 mps 667 mmHg 71%
    22:00 -6°C° 0 mm 2 mps 667 mmHg 70%
    23:00 -6°C° 0 mm 2 mps 667 mmHg 68%

    20 January, Sunday

    Time Temperature Precipitation Wind Pressure Humidity
    00:00 -6°C° 0 mm 2 mps 667 mmHg 66%
    01:00 -6°C° 0 mm 2 mps 667 mmHg 65%
    02:00 -6°C° 0 mm 2 mps 667 mmHg 63%
    03:00 -3°C° 0 mm 1 mps 667 mmHg 61%
    04:00 -3°C° 0 mm 1 mps 667 mmHg 60%
    05:00 -3°C° 0 mm 1 mps 667 mmHg 59%
    06:00 -3°C° 0 mm 1 mps 667 mmHg 58%
    07:00 -2°C° 0 mm 1 mps 668 mmHg 57%
    08:00 -2°C° 0 mm 1 mps 668 mmHg 57%
    09:00 -1°C° 0 mm 1 mps 668 mmHg 57%
    10:00 0°C° 0 mm 1 mps 668 mmHg 54%
    11:00 +1°C° 0 mm 0 mps 668 mmHg 51%
    12:00 +2°C° 0 mm 0 mps 668 mmHg 48%
    13:00 +2°C° 0 mm 0 mps 668 mmHg 50%
    14:00 +2°C° 0 mm 0 mps 668 mmHg 51%
    15:00 +2°C° 0 mm 0 mps 667 mmHg 52%
    16:00 +2°C° 0 mm 1 mps 667 mmHg 57%
    17:00 0°C° 0 mm 1 mps 667 mmHg 61%
    18:00 -2°C° 0 mm 1 mps 667 mmHg 66%
    19:00 -2°C° 0 mm 1 mps 667 mmHg 66%
    20:00 -2°C° 0 mm 1 mps 668 mmHg 67%
    21:00 -5°C° 0 mm 2 mps 668 mmHg 68%
    22:00 -5°C° 0 mm 2 mps 668 mmHg 67%
    23:00 -5°C° 0 mm 2 mps 667 mmHg 66%

    21 January, Monday

    Time Temperature Precipitation Wind Pressure Humidity
    00:00 -5°C° 0 mm 2 mps 667 mmHg 65%
    01:00 -6°C° 0 mm 2 mps 667 mmHg 64%
    02:00 -6°C° 0 mm 2 mps 667 mmHg 63%
    03:00 -6°C° 0 mm 2 mps 667 mmHg 62%
    04:00 -6°C° 0 mm 2 mps 667 mmHg 61%
    05:00 -6°C° 0 mm 2 mps 667 mmHg 61%
    06:00 -6°C° 0 mm 2 mps 667 mmHg 60%
    07:00 -6°C° 0 mm 2 mps 667 mmHg 59%
    08:00 -5°C° 0 mm 2 mps 667 mmHg 58%
    09:00 -4°C° 0 mm 2 mps 667 mmHg 57%
    10:00 -2°C° 0 mm 2 mps 667 mmHg 55%
    11:00 -1°C° 0 mm 2 mps 667 mmHg 53%
    12:00 +2°C° 0 mm 2 mps 667 mmHg 50%
    13:00 +3°C° 0 mm 1 mps 667 mmHg 52%
    14:00 +3°C° 0 mm 1 mps 666 mmHg 53%
    15:00 +4°C° 0 mm 1 mps 666 mmHg 55%
    16:00 +2°C° 0 mm 1 mps 666 mmHg 59%
    17:00 0°C° 0 mm 1 mps 666 mmHg 63%
    18:00 -2°C° 0 mm 1 mps 666 mmHg 67%
    19:00 -2°C° 0 mm 1 mps 666 mmHg 67%
    20:00 -5°C° 0 mm 2 mps 666 mmHg 67%
    21:00 -5°C° 0 mm 2 mps 666 mmHg 67%
    22:00 -5°C° 0 mm 2 mps 666 mmHg 66%
    23:00 -5°C° 0 mm 2 mps 666 mmHg 66%
    Show more